Regional Weather Roundup
Issued by NWS Sterling, VA

Home | Current Version | Previous Version | Text Only | Print | Product List | Glossary Off
Versions: 1 2 3 4 5 6 7 8 9 10 11 12 13 14 15 16 17 18 19 20 21 22 23 24 25 26 27 28 29 30 31 32 33 34 35 36 37 38 39 40 41 42 43 44 45 46 47 48 49 50

000
ASUS41 KLWX 261210
RWRLWX

REGIONAL WEATHER ROUNDUP
NATIONAL WEATHER SERVICE BALTIMORE MD/WASHINGTON DC
700 AM EST MON JAN 26 2015

Note: "FAIR" indicates few or no clouds below 12,000 feet
with no significant weather and/or obstructions to visibility.
 TC=TEMPERATURE CELSIUS

 * =Non NWS site. Station does not report precipitation (e.g. rain,
    snow, etc.), thunder, or fog.

DCZ001-MDZ009-015-VAZ040>042-051-053>054-261300-
WASHINGTON METRO

CITY           SKY/WX    TMP DP  RH WIND       PRES   REMARKS
WASHINGTON NAT LGT SNOW  38  33  82 E14       29.81R
DULLES         LGT SNOW  35  33  92 E12G20    29.78R FOG     WCI  27
ANDREWS AFB    LGT RAIN  35  33  94 E15       29.80R WCI  25
FT BELVOIR     LGT RAIN  37  36  93 VRB6      29.80R
QUANTICO       LGT RAIN  39  36  89 E6        29.79S
COLLEGE PARK*  CLOUDY    34  32  93 NE6       29.82R
LEESBURG*      LGT SNOW  34  34 100 E6        29.79R
MANASSAS*      RAIN      39  37  93 E7        29.77S
GAITHERSBURG*  CLOUDY    30  27  86 E7G18     29.83R

$$

MDZ006>007-011-014-261300-
BALTIMORE METRO

CITY           SKY/WX    TMP DP  RH WIND       PRES   REMARKS
BWI AIRPORT    FLURRIES  32  28  85 E17       29.83R WCI  21
MD SCIENCE CTR   N/A     32  26  78 MISG      29.85R
MARTIN STATE   MOCLDY    34  28  80 NE7G18    29.87R
ANNAPOLIS      LGT SNOW  35  29  78 E9        29.84R WCI  28
FORT MEADE*    CLOUDY    32  30  93 CALM      29.85R

$$

MDZ012-015-019>023-261300-
MARYLAND EASTERN SHORE

CITY           SKY/WX    TMP DP  RH WIND       PRES   REMARKS
OCEAN CITY     CLOUDY    42  38  85 NE15      29.81S
SALISBURY      CLOUDY    42  35  76 NE15      29.80F
BAY BRIDGE AP* FLURRIES  34  30  86 E13       29.84R WCI  25
CAMBRIDGE*     CLOUDY    37  34  87 NE8       29.81S
EASTON*        FLURRIES  37  32  81 E12G25    29.87R

$$

MDZ017>025-261300-
SOUTHERN MARYLAND

CITY           SKY/WX    TMP DP  RH WIND       PRES   REMARKS
PATUXENT RIVER LGT RAIN  39  36  89 E13       29.79R
ST INIGOES     LGT RAIN  40  35  83 NE13      29.78R
LEONARDTOWN*   CLOUDY    37  36  93 E5        29.81R

$$

MDZ003>005-261300-
NORTH CENTRAL MARYLAND

CITY           SKY/WX    TMP DP  RH WIND       PRES   REMARKS
FREDERICK*     LGT SNOW  36  30  80 NE8       29.84R
HAGERSTOWN APT LGT SNOW  30  26  85 NE13      29.78R FOG     WCI  20
WESTMINSTER*   FLURRIES  30  27  86 E6        29.79S

$$

MDZ501>502-261300-
WESTERN MARYLAND

CITY           SKY/WX    TMP DP  RH WIND       PRES   REMARKS
OAKLAND*       CLOUDY    28 N/A N/A SE10      29.61R FOG     WCI  19
CUMBERLAND*    CLOUDY    32  32 100 CALM      29.80R

$$

VAZ025>031-261300-
SHENANDOAH VALLEY

CITY           SKY/WX    TMP DP  RH WIND       PRES   REMARKS
WINCHESTER*    LGT SNOW  34  32  93 NE5       29.75R
FRONT ROYAL*   CLOUDY    34  32  93 CALM      29.73R
LURAY*         LGT RAIN  36  36 100 N6        29.71R
NEW MARKET*    CLOUDY    33  32  96 N6        29.70S
STAUNTON*      RAIN      36  33  91 CALM      29.70S
WAYNESBORO*    CLOUDY    35  34  95 E3        29.68S

$$

WVZ021-048>050-054>055-261300-
EASTERN WEST VIRGINIA PANHANDLE

CITY           SKY/WX    TMP DP  RH WIND       PRES   REMARKS
MARTINSBURG    LGT SNOW  31  27  85 N8        29.78R FOG     WCI  23
PETERSBURG*    LGT SNOW  34  34 100 W3        29.73R

$$

VAZ036>039-050-261300-
CENTRAL FOOTHILLS

CITY           SKY/WX    TMP DP  RH WIND       PRES   REMARKS
CHARLOTTESVILL LGT RAIN  37  35  92 NE8       29.72R FOG
CULPEPER*      RAIN      39  37  93 CALM      29.76R
ORANGE*        LGT RAIN  37  37 100 N3        29.75S
GORDONSVILLE*  CLOUDY    37  36  99 NE6       29.73R FOG
WARRENTON*     LGT RAIN  39  39 100 E7        29.76R

$$

VAZ055>057-261300-
NORTH AND CENTRAL PIEDMONT

CITY           SKY/WX    TMP DP  RH WIND       PRES   REMARKS
FREDERICKSBRG* RAIN      39  39 100 CALM      29.76S
STAFFORD*      RAIN      38  50 100 CALM      29.81S

$$

NCZ024-NYZ072-PAZ021-071-VAZ022-071-261300-
OTHER REGIONAL OBSERVATIONS

CITY           SKY/WX    TMP DP  RH WIND       PRES   REMARKS
NEW YORK CITY  LGT SNOW  24  12  60 NE14G23   30.02S WCI  12
PHILADELPHIA   FLURRIES  30  21  69 E13G24    29.92R WCI  20
PITTSBURGH     LGT SNOW  28  26  92 NE7       29.68R
ROANOKE        MOCLDY    36  31  82 CALM      29.69R
RICHMOND       CLOUDY    39  37  92 NE5       29.73F
RALEIGH        LGT RAIN  39  37  92 CALM      29.70R

$$

ANZ530>537-261300-
MARINE OBSERVATIONS

STATION/POSITION TIME  TEMP    WIND        PRES
                       AIR SEA DIR/SP/G
                 (UTC) (F)     (DEG/KT/KT) (MB)
THOMAS PT LIGHT  1200   35 37   90/ 17/ 19 1011.3R
BALT KEY BRIDGE  1100   33      60/ 13/ 17 1010.3S
COVE POINT       1100   38     100/ 14/ 15 1008.7R
LEWISETTA        1100   39 39   50/  2/  2 1008.2R
SOLOMONS ISLAND  1100      38                N/A
PINEY POINT      1100           80/  4/  5   N/A

$$




USA.gov is the U.S. government's official web portal to all federal, state and local government web resources and services.